Regional Weather Roundup
Issued by NWS

Home | Current Version | Previous Version | Text Only | Print | Product List | Glossary On
Versions: 1 2 3 4 5 6 7 8 9 10 11 12 13 14 15 16 17 18 19 20 21 22 23 24 25 26 27 28 29 30 31 32 33 34 35 36 37 38 39 40 41 42 43 44 45 46 47 48 49 50
000
ASUS44 KFWD 040415
RWRTX
NORTH TEXAS HOURLY WEATHER ROUNDUP
NATIONAL WEATHER SERVICE FORT WORTH TX
1100 PM CDT THU SEP 03 2015

NOTE: "FAIR" INDICATES FEW OR NO CLOUDS BELOW 12,000 FEET WITH NO
SIGNIFICANT WEATHER AND/OR OBSTRUCTIONS TO VISIBILITY.

TXZ118-119-040500-
DALLAS/FORT WORTH METROPLEX

CITY           SKY/WX    TMP DP  RH WIND       PRES   REMARKS
DFW AIRPORT    PTCLDY    84  66  54 SE8       29.89S
DALLAS LOVE    PTCLDY    86  67  52 SE10      29.89S
FTW MEACHAM    CLEAR     85  66  53 E8        29.89S
DAL-EXECUTIVE  CLEAR     83  66  56 SE6       29.90S
FTW-ALLIANCE   PTCLDY    82  66  58 SE7       29.90R
FTW-NAS-JRB    CLEAR     86  67  52 SE7       29.90S
FTW-SPINKS     CLEAR     78  65  65 CALM      29.92R
ARLINGTON      CLEAR     84  66  54 E6        29.90S
GRAND PRAIRIE  CLEAR     83  68  58 E5        29.91S
ADDISON        CLEAR     85  69  58 SE7       29.92S
MESQUITE       CLEAR     81  66  61 E3        29.91S
LANCASTER      CLEAR     82  64  53 CALM      29.91F
$$

TXZ091>094-102>105-117-120-121-131>134-040500-
NORTH CENTRAL TEXAS

CITY           SKY/WX    TMP DP  RH WIND       PRES   REMARKS
SHRMAN/DENISON CLEAR     82  69  63 SE9       29.92S
GAINESVILLE    CLEAR     80  65  61 SE6       29.93S
BOWIE          CLEAR     77  64  63 CALM      29.92R
BRIDGEPORT     CLEAR     80  66  62 SE3       29.93R
DECATUR        CLEAR     81  62  53 SE7       29.92S
DENTON         CLEAR     81  67  62 SE7       29.90R
MCKINNEY       CLEAR     81  68  64 SE5       29.91R
GREENVILLE     CLEAR     79  68  69 E5        29.91F
ROCKWALL       CLEAR     81  69  67 SE3       29.90S
TERRELL        CLEAR     81  69  67 E5        29.91R
WAXAHACHIE     CLEAR     81  68  65 E5        29.92S
CLEBURNE       CLEAR     82  70  65 E9        29.92S
GRANBURY       CLEAR     83  68  60 E6        29.91S
$$

TXZ083>090-098>101-113>116-127>130-139>142-154-155-040500-
WESTERN NORTH TEXAS

CITY           SKY/WX    TMP DP  RH WIND       PRES   REMARKS
WICHITA FALLS  CLEAR     79  62  56 SE10      29.90R
WF-KICKAPOO    CLEAR     81  63  54 SE6       29.91R
VERNON         CLEAR     83  55  37 SE12      29.90S
ABILENE        CLEAR     81  62  52 SE10      29.93R
ABILENE-DYESS  CLEAR     82  64  54 SE10      29.91S
BRECKENRIDGE   CLEAR     82  63  51 SE8       29.91S
GRAHAM         CLEAR     80  65  59 SE5       29.89S
MINERAL WELLS  CLEAR     79  66  64 CALM      29.90R
STEPHENVILLE   CLEAR     81  64  55 SE7       29.95R
COMANCHE       CLEAR     78  65  63 SE3       29.93R
BROWNWOOD      CLEAR     75  64  69 SE7       29.92S
COLEMAN        CLEAR     79  62  56 CALM      29.93S
BRADY          CLEAR     81  63  54 E3        29.93R
$$

TXZ143>147-156>162-174-175-040500-
CENTRAL TEXAS

CITY           SKY/WX    TMP DP  RH WIND       PRES   REMARKS
WACO           CLEAR     85  67  54 S10       29.89R
WACO-TSTC      CLEAR     81  68  65 SE5       29.90R
WACO-MCGREGOR  CLEAR     82  67  60 SE7       29.90R
HILLSBORO      CLEAR     80  66  62 E8        29.90S
CORSICANA      CLEAR     81  70  69 E6        29.91R
MEXIA          CLEAR     81  69  66 SE16      29.90R
HEARNE         CLEAR     79  71  77 CALM      29.90S
CAMERON        CLEAR     80  72  75 S3        29.89S
TEMPLE         CLEAR     81  66  61 SE9       29.91R
KILLEEN        CLEAR     80  70  70 SE9       29.90R
KILLEEN-SKYLRK CLEAR     81  66  61 S7        29.90S
FORT HOOD      CLEAR     81  70  69 SE8       29.89R
GATESVILLE     CLEAR     81  66  61 CALM      29.93R
HAMILTON       CLEAR     81  63  54 MISG      29.93S
$$

TXZ095>097-106>112-122>126-135>138-148>153-164>167-040500-
EAST TEXAS

CITY           SKY/WX    TMP DP  RH WIND       PRES   REMARKS
PARIS          CLEAR     79  61  53 SE7       29.92S
SULPHUR SPRNGS CLEAR     81  67  61 SE5       29.94S
MOUNT PLEASANT CLEAR     77  67  71 CALM      29.93S
GILMER         CLEAR     75  70  85 CALM      29.91S
MINEOLA        CLEAR     75  72  88 CALM      29.92S
TYLER          CLEAR     84  68  58 E6        29.91S
LONGVIEW       CLEAR     78  72  81 SE6       29.91R
MARSHALL       CLEAR     78  75  88 CALM      29.94S
ATHENS         CLEAR     77  70  78 CALM      29.90S
PALESTINE      PTCLDY    82  71  68 SE5       29.92R
JACKSONVILLE   CLEAR     81  69  66 S7        29.94S
HENDERSON      MOCLDY    79  70  73 CALM      29.93S
CENTER         FAIR      79  72  79 CALM      29.92S
NACOGDOCHES    CLEAR     79  72  78 SE5       29.92S
LUFKIN         PTCLDY    77  71  82 SE5       29.92R
$$

SUPPLEMENTAL OBSERVATIONS (CENTRAL)

CITY           SKY/WX    TMP DP  RH WIND       PRES   REMARKS
LAKE TEXOMA      N/A     81  68  65 E2          N/A
CADDO GRASSLND   N/A     75  66  73 SE1         N/A
PAT MAYSE LAKE   N/A     82  64  54 SE8         N/A
GREENVILLE       N/A     79  66  65 SE3         N/A
CEDAR HILL       N/A     82  64  54 E2          N/A
ATHENS           N/A     81  70  69 E2          N/A
LAKE LIMESTONE   N/A     81  68  65 SE2         N/A
MCGREGOR         N/A     82  66  57 S9          N/A
TEMPLE           N/A     81  70  69 SE5         N/A
$$

SUPPLEMENTAL OBSERVATIONS (WEST)

CITY           SKY/WX    TMP DP  RH WIND       PRES   REMARKS
MILLERS CREEK    N/A     81  63  54 SE9         N/A
POSSUM KINGDOM   N/A     82  61  47 SE8         N/A
LBJ GRASSLAND    N/A     81  63  54 SE5         N/A
GRANBURY         N/A     82  66  57 SE7         N/A
COMANCHE         N/A     79  63  57 SE3         N/A
HAMBY            N/A     81  63  54 SE7         N/A
IVIE RESERVOIR   N/A    N/A N/A N/A E7          N/A
COLORADO BEND    N/A     79  63  57 S5          N/A
$$

SUPPLEMENTAL OBSERVATIONS (EAST)

CITY           SKY/WX    TMP DP  RH WIND       PRES   REMARKS
CLARKSVILLE      N/A     79  63  57 SE5         N/A
CADDO LAKE       N/A     73  70  88 CALM        N/A
GILMER           N/A     75  70  83 CALM        N/A
HENDERSON        N/A     81  70  69 S2          N/A
LUFKIN           N/A     75  72  88 MISG        N/A
N SABINE NF      N/A     77  70  78 MISG        N/A
S SABINE NF      N/A     75  72  88 CALM        N/A
$$

SUPPLEMENTAL OBSERVATIONS ARE A COLLECTION OF AUTOMATED INSTRUMENTS
THAT ARE MAINTAINED BY A VARIETY OF FEDERAL AND STATE AGENCIES.
CERTAIN ELEMENTS...SUCH AS HUMIDITY VALUES AND SUSTAINED WIND
SPEEDS...MAY BE APPROXIMATED.



USA.gov is the U.S. government's official web portal to all federal, state and local government web resources and services.